GW5814 Weather Reports


time (UTC)temp
F
wind
direction
speed
knots
gust
knots
rain 1hr
in
rain 24hr
in
rain mn
in
humidity
%
barometer
mb
20260506024522 68 185 0.0 3.5 0.00 0.00 0.00 60 1009.4
20260506024013 67 187 0.9 7.8 0.00 0.00 0.00 61 1009.3
20260506023513 67 180 1.7 7.8 0.00 0.00 0.00 62 1009.4
20260506023025 66 240 0.9 5.2 0.00 0.00 0.00 63 1009.4
20260506022511 66 194 0.0 1.7 0.00 0.00 0.00 63 1009.4
20260506022004 66 200 0.9 3.5 0.00 0.00 0.00 63 1009.4
20260506021513 66 216 0.9 5.2 0.00 0.00 0.00 63 1009.4
20260506021008 66 267 0.9 5.2 0.00 0.00 0.00 63 1009.3
20260506020513 66 187 0.9 4.3 0.00 0.00 0.00 63 1009.4
20260506020018 66 148 1.7 7.0 0.00 0.00 0.00 63 1009.3
20260506015507 66 182 0.9 7.0 0.00 0.00 0.00 63 1009.3
20260506015007 66 137 0.9 6.1 0.00 0.00 0.00 63 1009.3
20260506014529 66 154 1.7 5.2 0.00 0.00 0.00 63 1009.2
20260506014007 66 171 1.7 6.1 0.00 0.00 0.00 63 1009.0
20260506013509 66 189 1.7 7.0 0.00 0.00 0.00 63 1008.9
20260506013028 66 200 1.7 7.0 0.00 0.00 0.00 63 1008.9
20260506012509 67 188 0.9 5.2 0.00 0.00 0.00 62 1008.8
20260506012011 67 250 0.9 7.8 0.00 0.00 0.00 61 1008.9
20260506011526 68 166 0.9 7.8 0.00 0.00 0.00 60 1008.9
20260506011006 69 194 0.9 6.1 0.00 0.00 0.00 58 1008.8
20260506010508 69 171 1.7 10.4 0.00 0.00 0.00 56 1008.7
20260506010023 70 215 2.6 10.4 0.00 0.00 0.00 55 1008.7
20260506005509 70 182 0.9 9.6 0.00 0.00 0.00 54 1008.6
20260506005015 71 182 1.7 9.6 0.00 0.00 0.00 53 1008.5
20260506004534 71 207 0.9 4.3 0.00 0.00 0.00 53 1008.4
20260506004009 72 159 0.9 4.3 0.00 0.00 0.00 51 1008.3
20260506003510 73 174 0.9 3.5 0.00 0.00 0.00 49 1008.2
20260506003024 74 173 0.9 6.1 0.00 0.00 0.00 47 1008.1
20260506002512 75 209 1.7 6.1 0.00 0.00 0.00 44 1008.2
20260506002013 77 206 1.7 6.1 0.00 0.00 0.00 41 1008.2
20260506001528 78 205 2.6 10.4 0.00 0.00 0.00 33 1008.0
20260506001010 78 233 1.7 10.4 0.00 0.00 0.00 32 1007.7
20260506000507 78 192 1.7 8.7 0.00 0.00 0.00 32 1007.8
20260506000035 79 302 2.6 10.4 0.00 0.00 0.00 32 1007.8
20260505235514 79 200 1.7 10.4 0.00 0.00 0.00 31 1007.8
20260505235007 79 191 3.5 9.6 0.00 0.00 0.00 31 1007.6
20260505234520 79 277 4.3 9.6 0.00 0.00 0.00 31 1007.5
20260505234009 79 260 1.7 5.2 0.00 0.00 0.00 31 1007.6
20260505233513 79 192 1.7 9.6 0.00 0.00 0.00 30 1007.6
20260505233022 79 200 4.3 12.2 0.00 0.00 0.00 30 1007.4
20260505232512 80 202 2.6 12.2 0.00 0.00 0.00 30 1007.3
20260505232010 80 197 2.6 8.7 0.00 0.00 0.00 30 1007.3
20260505231527 80 189 2.6 13.0 0.00 0.00 0.00 29 1007.3
20260505231010 80 199 5.2 16.5 0.00 0.00 0.00 29 1007.3
20260505230513 80 198 1.7 16.5 0.00 0.00 0.00 29 1007.1
20260505230033 81 104 3.5 13.0 0.00 0.00 0.00 29 1007.1
20260505225513 81 200 4.3 13.0 0.00 0.00 0.00 29 1007.0
20260505225007 81 234 6.1 14.8 0.00 0.00 0.00 28 1006.9
20260505224522 81 159 4.3 16.5 0.00 0.00 0.00 28 1006.9
20260505224012 81 248 5.2 16.5 0.00 0.00 0.00 28 1006.9
20260505223512 81 224 5.2 16.5 0.00 0.00 0.00 28 1006.9
20260505223028 82 202 7.0 17.4 0.00 0.00 0.00 28 1006.9
20260505222507 82 250 4.3 18.2 0.00 0.00 0.00 29 1006.6
20260505222009 82 232 3.5 17.4 0.00 0.00 0.00 29 1006.7
20260505221522 82 275 4.3 13.9 0.00 0.00 0.00 29 1006.5
20260505221012 82 153 3.5 13.9 0.00 0.00 0.00 29 1006.6
20260505220510 82 292 6.1 12.2 0.00 0.00 0.00 29 1006.6
20260505220036 82 171 7.0 17.4 0.00 0.00 0.00 28 1006.9
20260505215512 82 205 5.2 17.4 0.00 0.00 0.00 28 1006.8
20260505215009 82 313 3.5 17.4 0.00 0.00 0.00 29 1006.6
20260505214547 83 228 3.5 13.0 0.00 0.00 0.00 28 1006.6
20260505214007 83 159 3.5 13.0 0.00 0.00 0.00 28 1006.4
20260505213507 83 297 4.3 10.4 0.00 0.00 0.00 28 1006.3
20260505213030 83 166 3.5 14.8 0.00 0.00 0.00 28 1006.3
20260505212510 83 196 6.1 15.6 0.00 0.00 0.00 28 1006.2
20260505212003 84 242 7.0 15.6 0.00 0.00 0.00 28 1006.2
20260505211505 84 194 3.5 14.8 0.00 0.00 0.00 28 1006.2
20260505211009 84 194 3.5 14.8 0.00 0.00 0.00 28 1006.2
20260505210504 84 248 2.6 9.6 0.00 0.00 0.00 28 1006.3
20260505210007 84 211 2.6 12.2 0.00 0.00 0.00 28 1006.2
20260505205509 84 159 5.2 14.8 0.00 0.00 0.00 27 1006.2
20260505205009 83 243 6.1 13.9 0.00 0.00 0.00 28 1006.1
20260505204516 84 272 3.5 15.6 0.00 0.00 0.00 28 1006.2
20260505204007 83 238 4.3 16.5 0.00 0.00 0.00 28 1006.2
20260505203511 83 211 5.2 16.5 0.00 0.00 0.00 28 1006.1
20260505203015 82 236 6.1 13.9 0.00 0.00 0.00 32 1006.5
20260505202506 80 197 2.6 13.9 0.00 0.00 0.00 33 1006.5
20260505202008 79 162 2.6 6.1 0.00 0.00 0.00 40 1006.6
20260505201527 78 168 0.9 7.8 0.00 0.00 0.00 46 1006.6
20260505201004 77 303 0.9 7.8 0.00 0.00 0.00 48 1006.7
20260505200506 77 146 2.6 9.6 0.00 0.00 0.00 48 1006.7
20260505200008 77 225 2.6 9.6 0.00 0.00 0.00 47 1006.8
20260505195505 77 164 3.5 8.7 0.00 0.00 0.00 46 1006.8
20260505195004 78 150 1.7 7.0 0.00 0.00 0.00 48 1006.8
20260505194510 78 258 2.6 9.6 0.00 0.00 0.00 47 1006.9
20260505194010 77 232 2.6 9.6 0.00 0.00 0.00 48 1007.0
20260505193507 77 147 2.6 10.4 0.00 0.00 0.00 47 1007.0
20260505193034 78 203 4.3 11.3 0.00 0.00 0.00 46 1007.1
20260505192508 78 168 3.5 9.6 0.00 0.00 0.00 46 1007.2
20260505192006 79 232 3.5 12.2 0.00 0.00 0.00 44 1007.2
20260505191522 79 189 1.7 12.2 0.00 0.00 0.00 44 1007.3
20260505191009 80 180 2.6 13.0 0.00 0.00 0.00 44 1007.3
20260505190507 80 123 5.2 13.0 0.00 0.00 0.00 40 1007.2
20260505190008 79 177 4.3 8.7 0.00 0.00 0.00 42 1007.2
20260505185510 78 171 3.5 8.7 0.00 0.00 0.00 45 1007.5
20260505185005 78 212 3.5 8.7 0.00 0.00 0.00 46 1007.9
20260505184507 78 105 1.7 8.7 0.00 0.00 0.00 46 1007.8
20260505184007 78 211 2.6 9.6 0.00 0.00 0.00 46 1007.9
20260505183507 78 195 3.5 11.3 0.00 0.00 0.00 45 1007.9
20260505183017 79 142 2.6 11.3 0.00 0.00 0.00 44 1007.9
20260505182506 78 158 1.7 7.0 0.00 0.00 0.00 44 1007.9
20260505182012 79 212 3.5 7.0 0.00 0.00 0.00 44 1008.0
20260505181521 78 217 2.6 7.0 0.00 0.00 0.00 44 1008.0
20260505181011 78 130 2.6 7.0 0.00 0.00 0.00 44 1008.0
20260505180507 78 147 1.7 7.0 0.00 0.00 0.00 45 1008.0
20260505180032 78 210 2.6 6.1 0.00 0.00 0.00 44 1008.0
20260505175510 79 184 2.6 9.6 0.00 0.00 0.00 44 1008.0
20260505175009 79 169 2.6 9.6 0.00 0.00 0.00 43 1008.0
20260505174506 79 210 2.6 6.1 0.00 0.00 0.00 43 1008.0
20260505174007 79 172 2.6 6.1 0.00 0.00 0.00 44 1008.1
20260505173504 78 246 1.7 9.6 0.00 0.00 0.00 45 1008.2
20260505173008 78 157 1.7 9.6 0.00 0.00 0.00 44 1008.4
20260505172506 78 216 1.7 9.6 0.00 0.00 0.00 44 1008.4
20260505172011 78 117 1.7 7.8 0.00 0.00 0.00 44 1008.5
20260505171526 78 327 0.9 7.8 0.00 0.00 0.00 45 1008.6
20260505171005 77 152 1.7 7.0 0.00 0.00 0.00 45 1008.5
20260505170509 77 195 1.7 9.6 0.00 0.00 0.00 46 1008.6
20260505170018 77 134 1.7 9.6 0.00 0.00 0.00 45 1008.6
20260505165509 77 165 1.7 11.3 0.00 0.00 0.00 46 1008.6
20260505165010 76 219 2.6 11.3 0.00 0.00 0.00 45 1008.9
20260505164533 77 93 2.6 8.7 0.00 0.00 0.00 46 1009.0
20260505164008 77 129 2.6 8.7 0.00 0.00 0.00 45 1009.0
20260505163504 77 151 1.7 7.8 0.00 0.00 0.00 46 1009.1
20260505163006 76 137 0.9 7.0 0.00 0.00 0.00 48 1009.1
20260505162503 76 217 1.7 7.0 0.00 0.00 0.00 46 1009.3
20260505162004 76 215 1.7 7.8 0.00 0.00 0.00 47 1009.3
20260505161514 76 169 1.7 12.2 0.00 0.00 0.00 46 1009.2
20260505161006 77 89 2.6 12.2 0.00 0.00 0.00 46 1009.3
20260505160508 78 171 0.9 5.2 0.00 0.00 0.00 45 1009.3
20260505153029 76 250 3.5 11.3 0.00 0.00 0.00 45 1009.7
20260505152506 76 146 1.7 11.3 0.00 0.00 0.00 44 1009.7
20260505152015 76 190 1.7 8.7 0.00 0.00 0.00 46 1009.7
20260505151510 76 153 1.7 8.7 0.00 0.00 0.00 46 1009.8
20260505151008 76 201 2.6 7.0 0.00 0.00 0.00 45 1009.9
20260505150513 75 153 0.9 10.4 0.00 0.00 0.00 48 1009.9
20260505140512 70 252 3.5 9.6 0.00 0.00 0.00 56 1010.3
20260505125004 63 165 0.9 5.2 0.00 0.00 0.00 69 1010.1
20260505124517 63 206 0.9 3.5 0.00 0.00 0.00 69 1010.0
20260505124011 63 145 1.7 4.3 0.00 0.00 0.00 68 1010.1
20260505123511 63 169 1.7 5.2 0.00 0.00 0.00 68 1010.3
20260505123029 62 180 0.0 5.2 0.00 0.00 0.00 70 1010.4
20260505122508 62 78 0.0 5.2 0.00 0.00 0.00 70 1010.5
20260505122009 61 200 1.7 4.3 0.00 0.00 0.00 70 1010.4
20260505121532 61 182 1.7 3.5 0.00 0.00 0.00 72 1010.4
20260505121007 60 202 0.9 3.5 0.00 0.00 0.00 72 1010.2
20260505120514 60 176 0.0 3.5 0.00 0.00 0.00 77 1010.2
20260505120037 59 186 0.9 3.5 0.00 0.00 0.00 77 1010.2
20260505115512 58 220 0.9 2.6 0.00 0.00 0.00 78 1010.1
20260505115008 58 198 0.9 2.6 0.00 0.00 0.00 78 1010.3
20260505114514 58 292 0.0 2.6 0.00 0.00 0.00 78 1010.2
20260505114010 58 5 0.9 2.6 0.00 0.00 0.00 76 1010.3
20260505113506 59 303 0.0 1.7 0.00 0.00 0.00 74 1010.3
20260505113018 59 157 0.0 2.6 0.00 0.00 0.00 72 1010.4
20260505112507 59 183 1.7 2.6 0.00 0.00 0.00 69 1010.5
20260505112007 59 218 0.0 1.7 0.00 0.00 0.00 69 1010.8
20260505111524 59 286 0.9 1.7 0.00 0.00 0.00 69 1010.7
20260505111007 59 187 0.0 2.6 0.00 0.00 0.00 70 1010.7
20260505110507 59 186 0.9 2.6 0.00 0.00 0.00 69 1010.6
20260505102006 56 223 0.0 1.7 0.00 0.00 0.00 75 1010.3
20260505101521 56 223 0.0 1.7 0.00 0.00 0.00 75 1010.1
20260505101009 55 189 0.9 1.7 0.00 0.00 0.00 75 1010.0
20260505100508 55 281 0.0 1.7 0.00 0.00 0.00 75 1010.0
20260505100030 56 281 0.9 1.7 0.00 0.00 0.00 75 1009.9
20260505095507 56 217 0.0 1.7 0.00 0.00 0.00 74 1009.8
20260505095010 56 211 0.0 1.7 0.00 0.00 0.00 74 1009.7
20260505094529 56 215 0.9 4.3 0.00 0.00 0.00 74 1009.6
20260505094010 56 215 0.9 4.3 0.00 0.00 0.00 74 1009.5
20260505093511 56 196 0.0 1.7 0.00 0.00 0.00 74 1009.6
20260505093027 56 202 0.0 1.7 0.00 0.00 0.00 73 1009.6
20260505092508 56 199 0.0 1.7 0.00 0.00 0.00 73 1009.5
20260505092009 56 199 0.0 1.7 0.00 0.00 0.00 72 1009.4
20260505091529 56 199 0.0 1.7 0.00 0.00 0.00 72 1009.4
20260505091013 56 196 0.0 1.7 0.00 0.00 0.00 72 1009.5
20260505090506 56 196 0.0 1.7 0.00 0.00 0.00 72 1009.5
20260505090041 56 196 0.0 1.7 0.00 0.00 0.00 72 1009.3
20260505085510 56 210 0.9 1.7 0.00 0.00 0.00 72 1009.4
20260505085011 56 215 0.0 1.7 0.00 0.00 0.00 71 1009.4
20260505084526 57 221 0.0 1.7 0.00 0.00 0.00 71 1009.4
20260505084012 57 216 0.9 1.7 0.00 0.00 0.00 70 1009.4
20260505083510 57 203 0.0 2.6 0.00 0.00 0.00 70 1009.4
20260505083028 57 203 0.0 2.6 0.00 0.00 0.00 70 1009.4
20260505082507 57 206 0.0 1.7 0.00 0.00 0.00 69 1009.4
20260505082008 57 215 0.0 1.7 0.00 0.00 0.00 69 1009.5
20260505081525 58 215 0.0 1.7 0.00 0.00 0.00 68 1009.5
20260505081009 58 215 0.0 1.7 0.00 0.00 0.00 68 1009.5
20260505080509 58 207 0.9 1.7 0.00 0.00 0.00 67 1009.5
20260505080043 58 193 0.0 4.3 0.00 0.00 0.00 67 1009.5
20260505075509 58 209 0.9 4.3 0.00 0.00 0.00 67 1009.5
20260505075011 58 198 0.0 1.7 0.00 0.00 0.00 67 1009.6
20260505074525 58 198 0.0 2.6 0.00 0.00 0.00 67 1009.6
20260505074007 58 204 0.0 2.6 0.00 0.00 0.00 67 1009.6
20260505073508 58 201 0.0 2.6 0.00 0.00 0.00 67 1009.5
20260505073034 58 243 0.9 6.1 0.00 0.00 0.00 68 1009.4
20260505072509 57 211 0.9 6.1 0.00 0.00 0.00 68 1009.3
20260505072012 57 192 0.0 2.6 0.00 0.00 0.00 69 1009.3
20260505071529 57 194 0.9 1.7 0.00 0.00 0.00 69 1009.4
20260505071009 56 275 0.0 1.7 0.00 0.00 0.00 69 1009.3
20260505070508 56 275 0.0 1.7 0.00 0.00 0.00 69 1009.4
20260505070022 56 275 0.0 0.9 0.00 0.00 0.00 69 1009.4
20260505065508 57 225 0.0 1.7 0.00 0.00 0.00 68 1009.4
20260505065007 57 225 0.0 1.7 0.00 0.00 0.00 68 1009.4
20260505064522 57 290 0.0 1.7 0.00 0.00 0.00 68 1009.4
20260505064012 57 290 0.9 1.7 0.00 0.00 0.00 67 1009.5
20260505063513 58 282 0.0 1.7 0.00 0.00 0.00 66 1009.6
20260505063007 58 280 0.0 1.7 0.00 0.00 0.00 65 1009.5
20260505062504 58 316 0.9 1.7 0.00 0.00 0.00 64 1009.5
20260505062006 59 205 0.0 2.6 0.00 0.00 0.00 63 1009.6
20260505061516 59 193 0.0 2.6 0.00 0.00 0.00 63 1009.6
20260505061009 59 223 0.0 1.7 0.00 0.00 0.00 62 1009.7
20260505060509 59 155 0.0 1.7 0.00 0.00 0.00 62 1009.7
20260505060024 60 155 0.0 1.7 0.00 0.00 0.00 60 1009.7
20260505055508 60 186 0.0 2.6 0.00 0.00 0.00 60 1009.8
20260505055012 60 203 0.9 5.2 0.00 0.00 0.00 59 1009.8
20260505054523 60 211 0.9 7.0 0.00 0.00 0.00 59 1009.7
20260505054011 61 210 0.9 7.0 0.00 0.00 0.00 59 1009.8
20260505053504 61 211 0.9 4.3 0.00 0.00 0.00 58 1009.7
20260505053012 61 200 1.7 9.6 0.00 0.00 0.00 58 1009.7
20260505052508 61 202 0.9 9.6 0.00 0.00 0.00 58 1009.8
20260505052003 60 210 1.7 2.6 0.00 0.00 0.00 58 1009.9
20260505051509 61 239 0.0 3.5 0.00 0.00 0.00 57 1009.9
20260505051005 61 197 0.9 3.5 0.00 0.00 0.00 57 1009.9
20260505050509 61 257 0.9 3.5 0.00 0.00 0.00 57 1009.9
20260505041507 62 206 0.9 6.1 0.00 0.00 0.00 54 1010.1
20260505041004 62 182 0.9 6.1 0.00 0.00 0.00 54 1010.2
20260505040507 62 214 0.0 3.5 0.00 0.00 0.00 53 1010.1
20260505040013 62 213 0.9 7.0 0.00 0.00 0.00 53 1010.1
20260505035507 62 214 0.9 7.0 0.00 0.00 0.00 52 1010.0
20260505035008 62 201 0.0 3.5 0.00 0.00 0.00 53 1010.0
20260505034516 62 190 0.9 3.5 0.00 0.00 0.00 52 1010.0
20260505034008 62 212 0.0 4.3 0.00 0.00 0.00 52 1010.0
20260505033509 62 224 1.7 4.3 0.00 0.00 0.00 52 1010.1
20260505033022 62 194 0.9 4.3 0.00 0.00 0.00 52 1010.1
20260505032509 63 188 0.9 7.8 0.00 0.00 0.00 52 1010.2
20260505032011 63 191 2.6 7.8 0.00 0.00 0.00 52 1010.2
20260505031525 62 219 1.7 5.2 0.00 0.00 0.00 53 1010.2
20260505031009 62 197 1.7 7.0 0.00 0.00 0.00 54 1010.2
20260505030504 61 200 0.9 7.0 0.00 0.00 0.00 55 1010.1
20260505030009 60 225 0.9 4.3 0.00 0.00 0.00 56 1010.1
20260505025505 60 184 0.9 5.2 0.00 0.00 0.00 59 1010.1
20260505025007 58 196 0.9 5.2 0.00 0.00 0.00 61 1010.1